| time (UTC) | temp F | wind direction | speed MPH | gust MPH | rain 1hr in | rain 24hr in | rain mn in | humidity % | barometer mb |
| 20260901224855 | 70 | 20 | 11.0 | 0.0 | 0.00 | 0.00 | 0.00 | 69 | 1018.0 |
| 20260901223354 | 70 | 20 | 11.0 | 0.0 | 0.00 | 0.00 | 0.00 | 69 | 1018.0 |
| 20260901221853 | 70 | 20 | 11.0 | 0.0 | 0.00 | 0.00 | 0.00 | 69 | 1018.0 |
| 20260901220353 | 70 | 20 | 11.0 | 0.0 | 0.00 | 0.00 | 0.00 | 69 | 1018.0 |
| 20260901214855 | 70 | 20 | 11.0 | 0.0 | 0.00 | 0.00 | 0.00 | 69 | 1018.0 |
| 20260901213506 | 0 | 0.0 | 0.0 | 0.00 | 0.00 | 0.00 | |||
| 20260901211853 | 72 | 10 | 9.0 | 0.0 | 0.00 | 0.00 | 0.00 | 65 | 1018.0 |
| 20260901210423 | 72 | 10 | 9.0 | 0.0 | 0.00 | 0.00 | 0.00 | 65 | 1018.0 |
| 20260901204855 | 72 | 30 | 9.0 | 0.0 | 0.00 | 0.00 | 0.00 | 69 | 1018.0 |
| 20260901203425 | 72 | 30 | 9.0 | 0.0 | 0.00 | 0.00 | 0.00 | 69 | 1018.0 |
| 20260901201854 | 72 | 30 | 9.0 | 0.0 | 0.00 | 0.00 | 0.00 | 69 | 1018.0 |
| 20260901200353 | 72 | 30 | 9.0 | 0.0 | 0.00 | 0.00 | 0.00 | 69 | 1018.0 |
| 20260901195015 | 0 | 0.0 | 0.0 | 0.00 | 0.00 | 0.00 | |||
| 20260901193416 | 73 | 20 | 9.0 | 0.0 | 0.00 | 0.00 | 0.00 | 61 | 1017.0 |
| 20260901191917 | 73 | 20 | 9.0 | 0.0 | 0.00 | 0.00 | 0.00 | 61 | 1017.0 |
| 20260901190408 | 73 | 20 | 9.0 | 0.0 | 0.00 | 0.00 | 0.00 | 61 | 1017.0 |
| 20260901184854 | 73 | 10 | 9.0 | 0.0 | 0.00 | 0.00 | 0.00 | 57 | 1017.0 |
| 20260901183353 | 73 | 10 | 9.0 | 0.0 | 0.00 | 0.00 | 0.00 | 57 | 1017.0 |
| 20260901181854 | 73 | 10 | 9.0 | 0.0 | 0.00 | 0.00 | 0.00 | 57 | 1017.0 |
| 20260901180354 | 73 | 10 | 9.0 | 0.0 | 0.00 | 0.00 | 0.00 | 57 | 1017.0 |
| 20260901174853 | 81 | 10 | 9.0 | 0.0 | 0.00 | 0.00 | 0.00 | 48 | 1016.0 |
| 20260901173354 | 81 | 10 | 9.0 | 0.0 | 0.00 | 0.00 | 0.00 | 48 | 1016.0 |
| 20260901171854 | 81 | 10 | 9.0 | 0.0 | 0.00 | 0.00 | 0.00 | 48 | 1016.0 |
| 20260901170354 | 81 | 10 | 9.0 | 0.0 | 0.00 | 0.00 | 0.00 | 48 | 1016.0 |
| 20260901164854 | 84 | 20 | 9.0 | 0.0 | 0.00 | 0.00 | 0.00 | 40 | 1015.0 |
| 20260901163401 | 84 | 20 | 9.0 | 0.0 | 0.00 | 0.00 | 0.00 | 40 | 1015.0 |
| 20260901161853 | 84 | 20 | 9.0 | 0.0 | 0.00 | 0.00 | 0.00 | 40 | 1015.0 |
| 20260901160358 | 84 | 20 | 9.0 | 0.0 | 0.00 | 0.00 | 0.00 | 40 | 1015.0 |
| 20260901154853 | 86 | 3.0 | 0.0 | 0.00 | 0.00 | 0.00 | 40 | 1015.0 | |
| 20260901153354 | 86 | 3.0 | 0.0 | 0.00 | 0.00 | 0.00 | 40 | 1015.0 | |
| 20260901151853 | 86 | 3.0 | 0.0 | 0.00 | 0.00 | 0.00 | 40 | 1015.0 | |
| 20260901150353 | 86 | 3.0 | 0.0 | 0.00 | 0.00 | 0.00 | 40 | 1015.0 | |
| 20260901144932 | 90 | 3.0 | 0.0 | 0.00 | 0.00 | 0.00 | 36 | 1015.0 | |
| 20260901143354 | 90 | 3.0 | 0.0 | 0.00 | 0.00 | 0.00 | 36 | 1015.0 | |
| 20260901141916 | 0 | 0.0 | 0.0 | 0.00 | 0.00 | 0.00 | |||
| 20260901140516 | 0 | 0.0 | 0.0 | 0.00 | 0.00 | 0.00 | |||
| 20260901134853 | 88 | 3.0 | 0.0 | 0.00 | 0.00 | 0.00 | 38 | 1016.0 | |
| 20260901133354 | 88 | 3.0 | 0.0 | 0.00 | 0.00 | 0.00 | 38 | 1016.0 | |
| 20260901131902 | 88 | 3.0 | 0.0 | 0.00 | 0.00 | 0.00 | 38 | 1016.0 | |
| 20260901130353 | 88 | 3.0 | 0.0 | 0.00 | 0.00 | 0.00 | 38 | 1016.0 | |
| 20260901124900 | 84 | 260 | 11.0 | 0.0 | 0.00 | 0.00 | 0.00 | 40 | 1016.0 |
| 20260901123354 | 84 | 260 | 11.0 | 0.0 | 0.00 | 0.00 | 0.00 | 40 | 1016.0 |
| 20260901121853 | 84 | 260 | 11.0 | 0.0 | 0.00 | 0.00 | 0.00 | 40 | 1016.0 |
| 20260901120353 | 84 | 260 | 11.0 | 0.0 | 0.00 | 0.00 | 0.00 | 40 | 1016.0 |
| 20260901114854 | 84 | 230 | 14.0 | 0.0 | 0.00 | 0.00 | 0.00 | 37 | 1016.0 |
| 20260901113354 | 84 | 230 | 14.0 | 0.0 | 0.00 | 0.00 | 0.00 | 37 | 1016.0 |
| 20260901111854 | 84 | 230 | 14.0 | 0.0 | 0.00 | 0.00 | 0.00 | 37 | 1016.0 |
| 20260901110353 | 84 | 230 | 14.0 | 0.0 | 0.00 | 0.00 | 0.00 | 37 | 1016.0 |
| 20260901104854 | 82 | 230 | 14.0 | 0.0 | 0.00 | 0.00 | 0.00 | 32 | 1016.0 |
| 20260901103354 | 82 | 230 | 14.0 | 0.0 | 0.00 | 0.00 | 0.00 | 32 | 1016.0 |
| 20260901101957 | 0 | 0.0 | 0.0 | 0.00 | 0.00 | 0.00 | |||
| 20260901100355 | 82 | 230 | 14.0 | 0.0 | 0.00 | 0.00 | 0.00 | 32 | 1016.0 |
| 20260901094854 | 82 | 220 | 11.0 | 0.0 | 0.00 | 0.00 | 0.00 | 35 | 1017.0 |
| 20260901093353 | 82 | 220 | 11.0 | 0.0 | 0.00 | 0.00 | 0.00 | 35 | 1017.0 |
| 20260901091853 | 82 | 220 | 11.0 | 0.0 | 0.00 | 0.00 | 0.00 | 35 | 1017.0 |
| 20260901090354 | 82 | 220 | 11.0 | 0.0 | 0.00 | 0.00 | 0.00 | 35 | 1017.0 |
| 20260901084854 | 79 | 190 | 11.0 | 0.0 | 0.00 | 0.00 | 0.00 | 39 | 1017.0 |
| 20260901083403 | 79 | 190 | 11.0 | 0.0 | 0.00 | 0.00 | 0.00 | 39 | 1017.0 |
| 20260901081853 | 79 | 190 | 11.0 | 0.0 | 0.00 | 0.00 | 0.00 | 39 | 1017.0 |
| 20260901080355 | 79 | 190 | 11.0 | 0.0 | 0.00 | 0.00 | 0.00 | 39 | 1017.0 |
| 20260901074900 | 75 | 210 | 9.0 | 0.0 | 0.00 | 0.00 | 0.00 | 50 | 1017.0 |
| 20260901073354 | 75 | 210 | 9.0 | 0.0 | 0.00 | 0.00 | 0.00 | 50 | 1017.0 |
| 20260901071850 | 75 | 210 | 9.0 | 0.0 | 0.00 | 0.00 | 0.00 | 50 | 1017.0 |
| 20260901070353 | 75 | 210 | 9.0 | 0.0 | 0.00 | 0.00 | 0.00 | 50 | 1017.0 |
| 20260901064853 | 70 | 190 | 5.0 | 0.0 | 0.00 | 0.00 | 0.00 | 64 | 1017.0 |
| 20260901063354 | 70 | 190 | 5.0 | 0.0 | 0.00 | 0.00 | 0.00 | 64 | 1017.0 |
| 20260901061854 | 70 | 190 | 5.0 | 0.0 | 0.00 | 0.00 | 0.00 | 64 | 1017.0 |
| 20260901060354 | 70 | 190 | 5.0 | 0.0 | 0.00 | 0.00 | 0.00 | 64 | 1017.0 |
| 20260901054854 | 63 | 240 | 5.0 | 0.0 | 0.00 | 0.00 | 0.00 | 83 | 1017.0 |
| 20260901053353 | 63 | 240 | 5.0 | 0.0 | 0.00 | 0.00 | 0.00 | 83 | 1017.0 |
| 20260901051854 | 63 | 240 | 5.0 | 0.0 | 0.00 | 0.00 | 0.00 | 83 | 1017.0 |
| 20260901050354 | 63 | 240 | 5.0 | 0.0 | 0.00 | 0.00 | 0.00 | 83 | 1017.0 |
| 20260901044914 | 55 | 190 | 5.0 | 0.0 | 0.00 | 0.00 | 0.00 | 100 | 1016.0 |
| 20260901043354 | 55 | 190 | 5.0 | 0.0 | 0.00 | 0.00 | 0.00 | 100 | 1016.0 |
| 20260901041850 | 55 | 190 | 5.0 | 0.0 | 0.00 | 0.00 | 0.00 | 100 | 1016.0 |
| 20260901040353 | 55 | 190 | 5.0 | 0.0 | 0.00 | 0.00 | 0.00 | 100 | 1016.0 |
| 20260901034850 | 55 | 220 | 7.0 | 0.0 | 0.00 | 0.00 | 0.00 | 94 | 1016.0 |
| 20260901033353 | 55 | 220 | 7.0 | 0.0 | 0.00 | 0.00 | 0.00 | 94 | 1016.0 |
| 20260901031844 | 55 | 220 | 7.0 | 0.0 | 0.00 | 0.00 | 0.00 | 94 | 1016.0 |
| 20260901030353 | 55 | 220 | 7.0 | 0.0 | 0.00 | 0.00 | 0.00 | 94 | 1016.0 |
| 20260901024851 | 61 | 3.0 | 0.0 | 0.00 | 0.00 | 0.00 | 68 | 1017.0 | |
| 20260901023353 | 61 | 3.0 | 0.0 | 0.00 | 0.00 | 0.00 | 68 | 1017.0 | |
| 20260901021851 | 61 | 3.0 | 0.0 | 0.00 | 0.00 | 0.00 | 68 | 1017.0 | |
| 20260901020350 | 61 | 3.0 | 0.0 | 0.00 | 0.00 | 0.00 | 68 | 1017.0 | |
| 20260901014841 | 0 | 0.0 | 0.0 | 0.00 | 0.00 | 0.00 | |||
| 20260901013354 | 0 | 0.0 | 0.0 | 0.00 | 0.00 | 0.00 | |||
| 20260901011854 | 0 | 0.0 | 0.0 | 0.00 | 0.00 | 0.00 | |||
| 20260901010355 | 0 | 0.0 | 0.0 | 0.00 | 0.00 | 0.00 | |||
| 20260901004854 | 0 | 0.0 | 0.0 | 0.00 | 0.00 | 0.00 | |||
| 20260901003353 | 0 | 0.0 | 0.0 | 0.00 | 0.00 | 0.00 | |||
| 20260901001847 | 0 | 0.0 | 0.0 | 0.00 | 0.00 | 0.00 | |||
| 20260901000353 | 0 | 0.0 | 0.0 | 0.00 | 0.00 | 0.00 | |||
| 20260831234853 | 64 | 3.0 | 0.0 | 0.00 | 0.00 | 0.00 | 64 | 1017.0 | |
| 20260831233354 | 64 | 3.0 | 0.0 | 0.00 | 0.00 | 0.00 | 64 | 1017.0 | |
| 20260831231854 | 64 | 3.0 | 0.0 | 0.00 | 0.00 | 0.00 | 64 | 1017.0 | |
| 20260831230353 | 64 | 3.0 | 0.0 | 0.00 | 0.00 | 0.00 | 64 | 1017.0 |